Flag for United Kingdom Weather past 2 weeks in Walsall, England, United Kingdom

Now
64 °F

Passing clouds.


Feels Like: 64 °F
Forecast: 53 / 69 °F
Wind: 5 mph from Northeast

Location: Birmingham / Airport

Current Time: Sep 16, 2014 at 9:25:19 PM

Latest Report: Sep 16, 2014 at 8:50 PM


Visibility: 6 mi

Pressure: 29.98 "Hg

Humidity: 78%

Dew point: 57 °F

Location of WalsallLocation

Historic Weather in Walsall — Graph

°F

Walsall temperature yesterday

Maximum temperature yesterday: 66 °F (at 3:20 PM)
Minimum temperature yesterday: 54 °F (at 2:20 AM)
Average temperature yesterday: 60 °F

Past Weeks' High & Low Weather Summary

 TemperatureHumidityPressure
High70 °F (Sep 3, 3:50 PM)100% (Sep 3, 6:20 AM)30.36 "Hg (Sep 3, 6:20 AM)
Low48 °F (Sep 8, 4:20 AM)46% (Sep 7, 1:50 PM)29.95 "Hg (Sep 6, 2:50 AM)
Average60 °F76%30.14 "Hg
* Reported Sep 1 8:20 PM — Sep 16 8:20 PM, Walsall, Weather by CustomWeather, © 2014

Note: Actual official high and low records may vary slightly from our data, if they occured in-between our weather recording intervals... More about our weather records

Advertising

Walsall weather history for previous 24 hours

 ConditionsComfort  
Time TempWeatherWind HumidityBarometerVisibility
8:20 PM
Sep 16
64 °FClear.7 mph78%29.98 "Hg10 mi
7:50 PM66 °FPassing clouds.6 mph73%29.95 "Hg6 mi
7:20 PM68 °FScattered clouds.7 mph69%29.95 "HgN/A
6:50 PM68 °FScattered clouds.6 mph69%29.95 "Hg6 mi
6:20 PM68 °FPassing clouds.9 mph69%29.95 "Hg6 mi
5:50 PM70 °FPassing clouds.9 mph60%29.95 "Hg6 mi
5:20 PM68 °FScattered clouds.10 mph69%29.95 "Hg6 mi
4:50 PM70 °FScattered clouds.10 mph64%29.95 "Hg5 mi
4:20 PM70 °FScattered clouds.10 mph64%29.95 "Hg5 mi
3:50 PM70 °FPassing clouds.9 mph64%29.95 "Hg4 mi
3:20 PM70 °FScattered clouds.9 mph69%29.95 "Hg4 mi
2:50 PM68 °FPartly sunny.9 mph73%29.98 "Hg4 mi
2:20 PM66 °FPartly sunny.9 mph78%29.98 "Hg4 mi
1:50 PM66 °FBroken clouds.10 mph78%29.98 "Hg4 mi
1:20 PM64 °FBroken clouds.9 mph78%29.98 "Hg4 mi
12:50 PM64 °FPartly sunny.13 mph78%29.98 "Hg5 mi
12:20 PM64 °FScattered clouds.10 mph78%29.98 "Hg5 mi
11:50 AM66 °FScattered clouds.8 mph68%30.01 "Hg5 mi
11:20 AM64 °FClear.8 mph73%30.01 "Hg6 mi
10:50 AM63 °FClear.8 mph77%30.01 "Hg6 mi
10:20 AM59 °FPassing clouds.7 mph88%30.01 "Hg6 mi
9:50 AM57 °FFog.7 mph100%30.01 "Hg2 mi
9:20 AM55 °FFog.5 mph100%30.01 "Hg1 mi
8:50 AM55 °FFog.5 mph100%30.01 "Hg0 mi
8:20 AM55 °FFog.5 mph100%30.01 "Hg0 mi
7:50 AM55 °FFog.5 mph100%30.01 "Hg0 mi
7:20 AM55 °FFog.5 mph100%30.01 "Hg0 mi
6:50 AM54 °FFog.5 mph100%29.98 "Hg1 mi
6:20 AM52 °FFog.No wind94%29.98 "Hg0 mi
5:50 AM55 °FFog.2 mph94%29.98 "Hg1 mi
5:20 AM55 °FFog.No wind94%29.98 "Hg2 mi
4:50 AM55 °FFog.No wind100%30.01 "Hg3 mi
4:20 AM57 °FFog.No wind94%30.01 "Hg3 mi
3:50 AM57 °FFog.3 mph94%30.01 "Hg4 mi
3:20 AM59 °FClear.2 mph94%30.01 "Hg4 mi
2:50 AM59 °FHaze.2 mph94%30.01 "Hg2 mi
2:20 AM59 °FHaze.2 mph94%30.01 "Hg2 mi
1:50 AM59 °FHaze.2 mph94%30.01 "Hg2 mi
1:20 AM59 °FFog.2 mph94%30.01 "Hg5 mi
12:50 AM59 °FFog.2 mph94%30.01 "Hg5 mi
12:20 AM59 °FFog.3 mph94%30.01 "Hg6 mi
11:50 PM
Sep 15
59 °FPassing clouds.2 mph94%30.01 "Hg6 mi
11:20 PM61 °FPassing clouds.3 mph88%30.01 "Hg6 mi
10:50 PM61 °FPassing clouds.5 mph88%30.01 "HgN/A
10:20 PM61 °FPassing clouds.5 mph88%30.01 "HgN/A
9:50 PM63 °FPassing clouds.3 mph83%30.01 "HgN/A
9:20 PM63 °FPassing clouds.3 mph83%30.01 "HgN/A
Weather by CustomWeather, © 2014

See weather overviewHow to use our weather pages